NOAA 16 DEB, 42372

Orbit data source: Space-Track

NOAA 16 DEB, 42372 is space debris in SSO originally from a launch on Thu, 21 Sep 2000 UTC launched from the Air Force Western Test Range (AFWTR). Debris objects in space refer to the collection of defunct objects orbiting the Earth. Examples of debris include non-operational satellites, rocket bodies, and fragments generated from explosions, collisions, or faulty payload assembly.

Loading next visibility...
Identifier
42372, 2000-055RQ
Orbit
SSO
Country
Flag of USUS
Related business
Manufacturer
Unknown
Mission
Spacecraft
Bus & Motor
Unknown
Mass
Unknown
Launch date (UTC)
2000-09-21 (25 years ago)
Launch vehicle
Unknown
Launch site
Air Force Western Test Range (AFWTR)
Object type
Payload
Rocket body
Debris
Shape & HBR
Unknown
Radar Cross Section
Small (<0.1 m²)

Expand to show TLE details & history
Last TLE update: 7 hours ago

TLE from 7 hours ago
0 NOAA 16 DEB
1 42372U 00055RQ  25261.25504157  .00004329  00000-0  16580-2 0  9993
2 42372  98.8593  13.7994 0010041  59.8559 300.3616 14.31099345488437
Epoch: 2025-09-18T06:07Z
TLE epoch observation values (Epoch: 2025-09-18T06:07:15.591Z)
Latitude
-0.00012°
Longitude
-75.43481°
Altitude
787.351 km
Speed
7.462 km/s
True Right ascension
00h 55m 11s
True Declination
0° 00' 00"
Sunlit
Object was in full shadow at epoch
Visualization orbit readout
Latitude
Unknown
Longitude
Unknown
Altitude
Unknown
Speed
Unknown
Apparent Right ascension
Unknown
Apparent Declination
Unknown
Sunlit
N/A
Visualization observer readout
Local Sidereal Time
05:27:49
Azimuth
Unknown
Elevation
Unknown
Doppler factor
Unknown
Orbital elements
Apogee altitude
792.402 km
Perigee altitude
778.017 km
Semi-major axis
7,163.347 km
Eccentricity
0.001
Inclination
98.8593°
RAAN
13.7994°
Arg. of periapsis
59.8559°
True anomaly
300.26226°
Mean anomaly
300.3616°
Eccentric anomaly
300.31193°
Mean motion
3.57989 °/min
Orbital period
100.56 mins
BSTAR
0.001658
Loading maneuver chart data...
Computing Atmospheric mass density...
Loading historical data...
Loading historical data...
Loading historical data...
Loading historical data...
Loading historical data...
Loading historical data...
Loading historical data...

Documentation

Showing up to 5 results
|